Liberia, Costa Rica

5:51 AM CST on March 24, 2017 (GMT -0600)
Daniel Oduber Quiros International

Weather History for MRLB - April, 2012

Change the Weather History Date:

Friday, April 6, 2012

  Actual Average Record
Temperature  
Mean Temperature 84 °F -  
Max Temperature 97 °F 92 °F 98 °F (2003)
Min Temperature 72 °F 76 °F 68 °F (2006)
Cooling Degree Days 20    
Growing Degree Days 34 (Base 50)    
Moisture  
Dew Point 68 °F    
Average Humidity 53    
Maximum Humidity 89    
Minimum Humidity 23    
Precipitation  
Precipitation 0.00 in - - ()
Sea Level Pressure  
Sea Level Pressure 29.80 in    
Wind  
Wind Speed 4 mph ()    
Max Wind Speed 13 mph    
Max Gust Speed -    
Visibility 7.7 miles    
Events      
Averages and records for this station are not official NWS values.
T = Trace of Precipitation, MM = Missing Value Source: Averaged Metar Reports

Daily Weather History Graph

Daily Weather History Graph

Search for Another Location

Airport or City:

Trip Planner

Search our weather history database for the weather conditions in past years. The results will help you decide how hot, cold, wet, or windy it might be!

Date:

Astronomy

Apr. 06, 2012 Rise Set
Actual Time 5:36 AM CST 5:52 PM CST
Civil Twilight 5:14 AM CST 6:14 PM CST
Nautical Twilight 4:50 AM CST 6:38 PM CST
Astronomical Twilight 4:25 AM CST 7:03 PM CST
Moon 5:58 PM CST (4/6) 5:13 AM CST (4/6)
Length of Visible Light 12h 59m
Length of Day
12h 16m
Full, 100% of the Moon is Illuminated
Apr 6
Full
Apr 6
Full
Apr 13
Last Quarter
Apr 21
New
Apr 29
First Quarter

Hourly Weather History & Observations

Time (CST) Temp. Heat Index Dew Point Humidity Pressure Visibility Wind Dir Wind Speed Gust Speed Precip Events Conditions
6:00 AM 73 °F - 70 °F 89% 29.78 in 12 mi Calm Calm - -   Overcast
6:00 AM 73.4 °F - 69.8 °F 88% 29.81 in - Calm Calm - N/A   Clear
7:00 AM 77.0 °F - 71.6 °F 83% 29.84 in - North 3.5 mph - N/A   Clear
8:00 AM - - - N/A% - 6.2 mi Calm Calm - N/A   Overcast
8:01 AM 84.2 °F 89.6 °F 71.6 °F 66% 29.88 in 6.2 mi Calm Calm - N/A   Overcast
9:00 AM 85 °F - 71 °F 55% 29.86 in 12 mi SSE 5.8 mph - -   Overcast
9:00 AM 84.2 °F 89.6 °F 71.6 °F 66% 29.89 in 6.2 mi SSE 5.8 mph - N/A   Mostly Cloudy
10:00 AM 87.8 °F 92.6 °F 69.8 °F 55% 29.88 in 6.2 mi NE 4.6 mph - N/A   Mostly Cloudy
11:00 AM 91.4 °F 95.4 °F 68.0 °F 46% 29.87 in 6.2 mi NNE 4.6 mph - N/A   Mostly Cloudy
12:00 PM 96 °F - 62 °F 23% 29.84 in 12 mi SSE 4.6 mph - -   Overcast
12:00 PM 95.0 °F 96.0 °F 62.6 °F 34% 29.84 in 6.2 mi SSE 4.6 mph - N/A   Mostly Cloudy
1:00 PM 96.8 °F 95.8 °F 57.2 °F 27% 29.79 in 6.2 mi East 4.6 mph - N/A   Mostly Cloudy
2:00 PM 96.8 °F 100.7 °F 66.2 °F 37% 29.76 in 6.2 mi WSW 10.4 mph - N/A   Mostly Cloudy
3:00 PM 95 °F - 65 °F 28% 29.73 in 12 mi West 10.4 mph - -   Overcast
3:00 PM 95.0 °F 98.5 °F 66.2 °F 39% 29.74 in 6.2 mi West 10.4 mph - N/A   Mostly Cloudy
4:00 PM 93.2 °F 97.7 °F 68.0 °F 44% 29.73 in 6.2 mi WNW 12.7 mph - N/A   Mostly Cloudy
5:00 PM 91.4 °F 94.0 °F 66.2 °F 43% 29.74 in 6.2 mi West 9.2 mph - N/A   Mostly Cloudy
6:00 PM 87 °F - 70 °F 49% 29.72 in 12 mi SW 8.1 mph - -   Overcast
6:00 PM 87.8 °F 92.6 °F 69.8 °F 55% 29.76 in 6.2 mi SW 8.1 mph - N/A   Mostly Cloudy
7:00 PM 84.2 °F 88.4 °F 69.8 °F 62% 29.80 in 6.2 mi SW 4.6 mph - N/A   Mostly Cloudy
8:00 PM 82.4 °F 88.2 °F 73.4 °F 74% 29.83 in 6.2 mi SSE 5.8 mph - N/A   Mostly Cloudy